CAPE
0 60 71 0 0 0 0 0 0 0 0 0 0 0 6 0 0 7 27 0 74 66 49 143 108 129 166 35 38 36 14 0 258
9 80 21 0 0 0 0 0 0 0 0 0 0 0 0 0 0 0 13 77 86 69 19 5 3 22 119 154 142 140 145 145 168
70 78 36 0 0 0 0 0 0 0 0 0 0 0 0 0 0 0 0 0 0 0 1 4 3 2 9 20 37 84 108 142 110
101 89 44 0 0 0 0 0 0 0 0 0 0 0 0 0 0 0 0 0 0 1 1 2 3 2 0 2 5 7 5 3 5
75 59 52 30 0 0 0 0 0 0 0 0 0 0 0 0 0 0 0 0 0 0 0 0 0 1 0 0 2 3 3 2 1
15 14 32 36 23 16 9 3 0 0 0 0 0 0 0 0 0 0 0 0 0 0 0 0 0 0 0 0 0 1 1 0 0
12 10 17 22 26 43 57 30 0 0 0 0 0 0 0 0 0 0 0 0 0 0 0 0 0 0 0 0 0 0 0 0 0
3 3 8 11 25 30 49 16 0 0 0 0 0 0 0 0 0 0 0 0 0 0 0 0 0 0 0 0 0 0 0 0 0
0 0 0 0 3 9 36 6 0 0 0 0 0 0 0 0 0 0 0 0 0 0 0 0 0 0 0 0 0 0 0 0 0
0 0 0 0 0 3 12 6 0 0 0 0 0 0 0 0 0 0 0 0 0 0 0 0 0 0 0 0 0 0 0 0 0
0 0 0 0 0 0 0 0 0 0 0 0 0 0 0 0 0 0 0 0 0 0 0 0 0 0 0 1 0 0 0 0 0
0 0 0 0 0 0 0 0 0 0 0 0 0 0 0 0 0 0 0 0 0 0 0 0 0 0 0 1 0 0 0 0 0
0 0 0 0 0 0 0 0 0 0 0 0 0 0 0 0 0 0 0 0 0 0 0 0 0 0 1 3 1 0 0 0 0
0 0 0 0 0 0 0 0 0 0 0 0 0 0 0 0 0 0 0 0 0 0 0 0 0 0 1 2 3 0 0 0 0
0 0 0 0 0 0 0 0 0 0 0 0 0 0 0 0 0 0 0 0 0 0 0 0 0 0 0 0 3 2 0 0 0
18 0 0 0 0 0 0 0 0 0 0 0 0 0 0 0 0 0 0 0 0 0 0 0 0 0 0 0 0 1 0 0 0
175 63 42 4 0 0 0 0 0 0 0 0 0 0 0 0 0 0 0 0 0 0 0 0 0 0 0 0 0 0 0 0 0
147 59 31 26 0 0 0 0 0 22 0 0 6 0 0 0 0 0 0 0 0 0 0 0 0 0 0 0 0 0 0 0 0
139 89 91 85 62 3 6 0 0 0 0 0 0 0 0 0 0 0 0 0 0 0 0 0 0 0 0 0 0 0 0 0 0
0 61 49 23 33 20 19 8 1 0 0 1 1 1 0 0 0 0 0 0 0 0 0 0 0 0 0 0 0 0 0 0 0
CIN
0 -44 -23 0 0 0 0 0 0 0 0 0 0 0 -24 0 0 -9 -55 0 -44 -39 -45 -24 -36 -42 -33 -94 -96 -108 -146 0 -26
-39 -71 -67 0 0 0 0 0 0 0 0 0 0 0 0 0 0 0 -15 -32 -34 -36 -83 -1 -1 -107 -31 -44 -43 -36 -37 -29 -29
-135 -117 -147 0 0 0 0 0 0 0 0 0 0 0 0 0 0 0 0 0 0 0 0 0 0 0 -67 -48 -93 -42 -33 -25 -40
-151 -143 -161 0 0 0 0 0 0 0 0 0 0 0 0 0 0 0 0 0 0 0 0 0 0 0 0 0 0 -3 -5 -4 -4
-179 -172 -168 -197 0 0 0 0 0 0 0 0 0 0 0 0 0 0 0 0 0 0 0 0 0 0 0 0 0 0 0 -1 0
-264 -223 -189 -193 -218 -226 -134 -70 0 0 0 0 0 0 0 0 0 0 0 0 0 0 0 0 0 0 0 0 0 0 0 0 0
-339 -315 -262 -249 -237 -207 -176 -225 0 0 0 0 0 0 0 0 0 0 0 0 0 0 0 0 0 0 0 0 0 0 0 0 0
-422 -397 -347 -332 -300 -284 -221 -276 0 0 0 0 0 0 0 0 0 0 0 0 0 0 0 0 0 0 0 0 0 0 0 0 0
0 0 -204 0 -372 -382 -270 -359 0 0 0 0 0 0 0 0 0 0 0 0 0 0 0 0 0 0 0 0 0 0 0 0 0
0 0 0 0 0 -435 -336 -348 0 0 0 0 0 0 0 0 0 0 0 0 0 0 0 0 0 0 0 0 0 0 0 0 0
0 0 0 0 0 0 0 0 0 0 0 0 0 0 0 0 0 0 0 0 0 0 0 0 0 0 0 0 0 0 0 0 0
0 0 0 0 0 0 0 0 0 0 0 0 0 0 0 0 0 0 0 0 0 0 0 0 0 -1 -1 -1 0 0 0 0 0
0 0 0 0 0 0 0 0 0 0 0 0 0 0 0 0 0 0 0 0 0 0 0 0 0 0 0 0 0 0 0 0 0
0 0 0 0 0 0 0 0 0 0 0 0 0 0 0 0 0 0 0 0 0 0 0 0 0 0 0 -1 0 0 0 0 0
0 0 0 0 0 0 0 0 0 0 0 0 0 0 0 0 0 0 0 0 0 0 0 0 0 0 0 0 0 0 0 0 0
-97 0 0 0 0 0 0 0 0 0 0 0 0 0 0 0 0 0 0 0 0 0 0 0 0 0 0 0 0 0 0 0 0
-55 -60 -55 -34 0 0 0 0 0 -16 0 0 0 0 0 0 0 0 0 0 0 0 0 0 0 0 0 0 0 0 0 0 0
-53 -53 -65 -67 0 0 0 0 0 -26 0 0 -10 0 0 0 0 0 0 0 0 0 0 0 0 0 0 0 0 0 0 0 0
-50 -46 -47 -44 -48 -19 -27 0 0 0 0 0 0 0 0 0 0 0 0 0 0 0 0 0 0 0 0 0 0 0 0 0 0
0 -45 -47 -28 -40 -43 -35 -29 -3 0 0 -2 -2 -50 0 0 0 0 0 0 0 0 0 0 0 0 0 0 0 0 0 0 0
Wind_Speed
18 18 18 18 19 19 20 19 19 18 17 17 18 19 19 19 19 20 20 18 19 20 21 21 20 22 20 17 18 17 17 18 19
18 18 18 18 18 18 18 18 18 17 16 17 17 18 18 18 18 18 19 19 19 18 18 18 18 19 19 18 20 19 18 18 18
18 17 17 17 17 17 17 17 16 16 16 16 17 18 17 17 17 17 16 16 16 16 17 17 17 16 16 16 17 17 17 17 17
16 16 15 15 15 15 15 15 15 15 14 14 15 16 15 15 15 16 16 15 16 16 16 16 16 16 15 15 14 15 15 15 15
13 13 13 13 13 14 14 14 14 13 13 13 14 16 13 13 14 14 15 15 15 15 15 15 15 15 15 15 14 14 14 14 14
10 10 10 11 11 12 12 12 12 12 12 11 12 14 12 12 12 13 13 14 15 15 15 14 14 14 14 14 13 13 13 13 14
8 8 8 8 8 9 10 10 11 11 11 11 10 12 12 9 10 11 11 13 13 14 13 13 13 13 13 13 13 13 13 13 13
5 5 6 6 6 7 7 8 9 10 10 10 10 11 13 8 8 9 9 11 12 12 12 12 12 11 12 11 11 12 12 12 13
3 3 3 4 5 6 6 7 7 8 9 10 10 11 12 7 7 7 8 9 10 11 12 11 11 10 10 11 11 10 11 11 12
1 1 3 3 4 4 5 6 7 9 9 10 10 10 11 8 7 8 7 9 9 10 10 10 10 9 9 9 9 9 10 10 11
1 1 3 5 4 5 5 6 7 9 9 11 11 12 12 10 8 8 7 8 9 9 9 9 9 9 9 8 8 8 8 9 9
3 3 5 6 6 7 7 8 10 11 12 12 12 13 13 13 12 10 9 10 10 9 10 10 10 9 9 8 8 8 7 7 8
5 6 7 8 9 9 10 11 12 13 13 13 13 14 16 16 17 15 14 14 14 13 12 11 11 11 10 9 9 8 8 8 8
8 9 11 11 12 12 12 14 14 15 16 17 17 17 17 18 18 18 17 16 16 15 14 13 12 13 12 11 10 10 10 9 10
12 13 13 13 14 15 15 16 16 18 18 19 20 20 20 21 20 19 19 18 18 17 16 16 14 13 13 13 12 12 12 11 11
17 17 18 17 17 17 17 18 18 19 22 23 25 25 24 24 23 23 23 22 20 19 19 19 19 18 16 16 15 15 14 14 13
21 22 20 21 21 21 21 20 23 23 22 24 28 31 31 29 27 26 25 25 24 23 22 22 22 21 21 20 19 19 18 17 18
24 24 25 25 23 23 22 22 22 26 25 22 24 30 32 33 30 28 27 27 26 25 24 24 24 23 22 22 20 20 19 20 21
25 24 23 22 21 21 21 22 23 24 26 27 24 28 31 35 40 33 31 30 31 30 28 26 26 24 23 23 22 22 22 21 24
27 25 24 21 21 22 22 22 22 23 25 26 28 27 30 31 35 44 38 34 31 32 31 31 29 26 26 25 22 22 25 25 28
Wind_Direction
67 61 68 67 67 65 56 54 54 54 49 42 32 26 32 44 50 42 41 60 48 43 34 39 31 24 38 45 29 32 34 33 34
68 69 69 70 70 64 57 56 57 54 48 43 35 27 39 48 47 46 42 47 43 38 32 26 21 21 26 31 28 34 38 41 40
65 69 70 72 70 65 59 60 58 54 49 41 36 29 43 45 44 41 37 34 28 27 26 25 24 24 24 25 23 25 29 28 28
61 66 71 72 71 64 61 61 58 52 45 39 34 24 40 44 38 37 34 32 28 26 27 28 27 25 24 26 27 21 20 21 21
61 64 68 69 68 64 62 63 58 51 46 40 33 21 48 42 38 34 32 30 28 28 27 28 25 24 27 28 28 30 28 25 24
67 68 69 65 62 58 58 58 54 48 42 37 31 25 36 38 39 36 35 28 24 22 22 22 23 23 25 27 30 32 31 31 29
59 77 79 70 59 53 50 45 39 31 24 20 22 22 18 40 36 31 33 27 23 21 20 21 23 22 25 27 27 29 30 31 31
59 75 65 47 44 34 34 24 18 15 13 9 9 9 5 29 26 24 27 21 18 17 17 19 21 23 22 23 25 27 27 28 29
60 83 69 30 12 6 2 360 360 359 2 357 352 351 356 16 11 10 10 9 10 8 9 10 12 15 14 12 16 21 23 24 26
51 59 13 359 352 344 340 338 336 335 333 334 334 334 339 347 347 348 352 353 354 357 357 358 2 3 4 5 7 12 14 17 16
252 306 333 335 331 326 321 319 319 321 319 319 318 318 322 325 324 327 331 331 336 341 343 346 348 349 349 352 355 359 4 8 7
276 286 311 323 321 319 314 313 314 313 313 309 310 311 310 312 311 312 312 318 318 321 324 327 329 331 332 333 336 342 348 353 351
276 283 295 309 312 309 309 307 305 305 302 299 301 306 307 304 305 304 303 305 307 307 308 310 313 314 316 317 319 323 328 331 336
280 282 294 300 304 302 301 302 302 303 302 298 296 300 301 301 302 299 296 295 296 298 297 296 298 301 303 304 306 308 310 314 317
290 293 294 295 298 300 300 298 300 304 302 301 298 298 297 298 297 295 294 291 289 288 289 290 288 286 289 291 294 297 300 303 306
297 295 299 298 293 291 294 297 294 294 304 305 303 301 298 296 295 296 293 291 288 286 285 285 286 285 281 283 285 287 290 294 297
301 302 299 296 294 294 293 293 299 299 299 299 305 303 301 296 293 292 289 288 289 285 283 282 282 282 282 281 280 284 284 287 292
300 301 304 302 297 294 294 294 292 296 300 295 297 307 301 306 305 295 289 289 286 286 284 281 280 277 278 279 277 282 280 283 289
301 302 304 305 304 301 300 299 296 297 297 301 293 294 300 301 303 305 301 293 290 288 285 281 280 276 274 274 275 278 278 281 284
305 303 303 304 307 307 308 308 305 300 299 300 304 297 295 299 298 299 301 297 293 289 286 282 281 277 276 275 271 277 276 277 281